Location: Kalispell
(48.1967°N, 114.3128°W)
Time: 05:04:13
(UTC-06:00)

Amateur Radio Satellites - All Passes

Search period start: 19 October 2017 04:34
Search period end: 20 October 2017 04:34
Location: Kalispell, 48.1967°N, 114.3128°W

Satellite Date Start Highest point End Downlink Frequencies (MHz)
Time Altitude Azimuth
Oscar 19 19 Oct 05:07:37 05:10:45 17° 304° (NW) 05:13:52 437.125/150
NO-84 19 Oct 05:20:59 05:25:15 64° 143° (SE) 05:29:23 435.350 FM
DOVE 4 19 Oct 05:21:58 05:23:44 12° 86° (E) 05:25:30 437.250
Gurwin Techsat 1B 19 Oct 05:27:01 05:30:21 17° 304° (NW) 05:33:41 435.225
KKS-1 19 Oct 05:29:30 05:33:51 59° 71° (ENE) 05:38:15 437.445
MOZHAYETS 4 19 Oct 05:31:24 05:33:40 13° 272° (W) 05:35:57
ITAMSAT 1 19 Oct 05:35:22 05:40:39 86° 103° (ESE) 05:45:54 435.822/435.867
CUBESAT XI-V 19 Oct 05:35:53 05:40:17 43° 262° (W) 05:44:43 437.345
ITUPSAT 1 19 Oct 05:47:43 05:49:06 11° 274° (W) 05:50:29 437.325
AO-7 19 Oct 05:58:56 06:07:15 78° 292° (WNW) 06:15:32 .
STARS 19 Oct 06:06:28 06:10:46 59° 71° (ENE) 06:15:08 437.465
XW-2C 19 Oct 06:44:07 06:46:05 14° 90° (E) 06:48:03 145.795 - 145.815
RS-15 19 Oct 06:47:36 06:58:39 36° 360° (N) 07:09:20 29.354- 29.394
O/OREOS (USA 219) 19 Oct 06:47:43 06:52:02 38° 56° (NE) 06:56:20 437.305
DOVE 4 19 Oct 06:57:08 07:02:04 82° 103° (ESE) 07:07:13 437.250
NO-84 19 Oct 06:58:49 07:02:53 41° 342° (NNW) 07:06:44 435.350 FM
KKS-1 19 Oct 07:07:53 07:10:47 17° 269° (W) 07:13:41 437.445
ITAMSAT 1 19 Oct 07:16:07 07:19:27 17° 304° (NW) 07:22:45 435.822/435.867
HO-68 19 Oct 07:22:46 07:27:21 18° 87° (E) 07:31:53 435.675
STRAND 1 19 Oct 07:29:05 07:33:55 44° 67° (ENE) 07:38:48 437.568
XW-2F 19 Oct 07:29:08 07:32:40 39° 98° (E) 07:36:10 145.980 - 146.000
KAITUO 1B 19 Oct 07:29:54 07:33:14 32° 96° (E) 07:36:34 145.475/437.950
LilacSat-2 19 Oct 07:31:14 07:34:54 48° 100° (E) 07:38:33 437.200
CUTE-I 19 Oct 07:34:12 07:39:16 41° 98° (E) 07:44:20 437.470
XW-2D 19 Oct 07:40:16 07:43:59 60° 100° (E) 07:47:41 145.860 - 145.880
STARS 19 Oct 07:44:41 07:47:30 17° 270° (W) 07:50:20 437.465
NUDT-PHONESAT 19 Oct 07:46:19 07:49:53 47° 100° (E) 07:53:25 437.300
CUBEBUG 2 19 Oct 07:47:47 07:49:28 12° 85° (E) 07:51:08 437.445
AO-7 19 Oct 07:52:43 07:58:49 24° 315° (NW) 08:04:57 .
XW-2B 19 Oct 07:53:40 07:57:26 82° 104° (ESE) 08:01:10 145.730 - 145.750
XW-2C 19 Oct 08:16:56 08:20:35 52° 288° (WNW) 08:24:13 145.795 - 145.815
SO-50 19 Oct 08:19:40 08:24:00 52° 122° (ESE) 08:28:23 436.795
O/OREOS (USA 219) 19 Oct 08:27:22 08:31:20 29° 255° (WSW) 08:35:17 437.305
UWE-3 19 Oct 08:27:43 08:30:42 17° 89° (E) 08:33:35 435.000/436.395/437.385
CUTE 1.7 + AOD 2 19 Oct 08:35:37 08:39:45 52° 100° (E) 08:43:51 437.475
DOVE 4 19 Oct 08:36:09 08:39:12 17° 300° (WNW) 08:42:19 437.250
NO-84 19 Oct 08:37:17 08:40:59 30° 3° (N) 08:44:28 435.350 FM
SEEDS 19 Oct 08:45:28 08:49:26 41° 98° (E) 08:53:22 437.485
TIGRISAT 19 Oct 08:48:05 08:48:23 10° 53° (NE) 08:48:41 435.000
FO-29 19 Oct 08:52:54 08:57:48 42° 65° (ENE) 09:03:07 435.910
RS-15 19 Oct 09:02:46 09:14:36 52° 33° (NNE) 09:25:48 29.354- 29.394
XW-2F 19 Oct 09:03:53 09:06:31 19° 296° (WNW) 09:09:08 145.980 - 146.000
KAITUO 1B 19 Oct 09:04:11 09:07:05 22° 294° (WNW) 09:09:56 145.475/437.950
LilacSat-2 19 Oct 09:06:27 09:08:49 16° 297° (WNW) 09:11:12 437.200
STRAND 1 19 Oct 09:08:50 09:13:14 29° 266° (W) 09:17:42 437.568
HO-68 19 Oct 09:08:53 09:16:10 83° 107° (ESE) 09:23:22 435.675
AAUSAT CUBESAT 2 19 Oct 09:13:28 09:17:19 37° 97° (E) 09:21:09 437.432
CUTE-I 19 Oct 09:14:27 09:19:14 33° 296° (WNW) 09:23:59 437.470
XW-2D 19 Oct 09:15:48 09:17:43 14° 299° (WNW) 09:19:37 145.860 - 145.880
PCSat 19 Oct 09:18:18 09:23:14 37° 113° (ESE) 09:28:13 145.827
YUBILEINY 19 Oct 09:19:12 09:26:02 27° 79° (E) 09:32:52 435.215
NUDT-PHONESAT 19 Oct 09:21:08 09:23:23 16° 297° (WNW) 09:25:37 437.300
CUBEBUG 2 19 Oct 09:22:03 09:26:48 89° 272° (W) 09:31:21 437.445
AO-73 19 Oct 09:22:37 09:26:25 28° 94° (E) 09:30:06 145.935
XW-2B 19 Oct 09:30:13 09:31:00 11° 301° (WNW) 09:31:47 145.730 - 145.750
XW-2A 19 Oct 09:40:26 09:43:48 73° 284° (WNW) 09:47:06 145.665 - 145.685
ZACube-1 19 Oct 09:43:33 09:47:53 50° 99° (E) 09:52:04 437.345
PRISM 19 Oct 09:58:50 10:01:47 20° 63° (ENE) 10:04:46 437.425
SO-50 19 Oct 10:00:46 10:04:42 29° 323° (NW) 10:08:41 436.795
UWE-3 19 Oct 10:03:03 10:07:34 60° 288° (WNW) 10:11:55 435.000/436.395/437.385
UNISAT 6 19 Oct 10:04:30 10:08:59 49° 70° (ENE) 10:13:32 437.425
CUTE 1.7 + AOD 2 19 Oct 10:12:18 10:15:13 18° 298° (WNW) 10:18:07 437.475
NO-84 19 Oct 10:15:03 10:18:59 55° 24° (NNE) 10:22:36 435.350 FM
TIGRISAT 19 Oct 10:19:32 10:24:07 63° 72° (ENE) 10:28:48 435.000
SEEDS 19 Oct 10:21:40 10:24:53 22° 296° (WNW) 10:28:05 437.485
Oscar 11 19 Oct 10:22:35 10:26:55 78° 104° (ESE) 10:31:12 .
Max Valier Satellite 19 Oct 10:29:35 10:31:46 15° 91° (E) 10:33:55 145.860
FO-29 19 Oct 10:38:32 10:43:08 30° 267° (W) 10:48:02 435.910
AAUSAT CUBESAT 2 19 Oct 10:49:18 10:52:35 23° 295° (WNW) 10:55:52 437.432
DELFI C3 19 Oct 10:53:05 10:56:48 38° 98° (E) 11:00:31 145.870
nSIGHT-1 19 Oct 10:54:48 10:56:21 13° 136° (SE) 10:57:55 .
HO-68 19 Oct 10:57:30 11:03:09 26° 307° (NW) 11:08:47 435.675
AO-73 19 Oct 10:58:42 11:02:41 33° 293° (WNW) 11:06:33 145.935
CUBEBUG 2 19 Oct 11:00:20 11:02:39 14° 303° (WNW) 11:04:58 437.445
PCSat 19 Oct 11:01:26 11:06:35 43° 313° (NW) 11:11:48 145.827
YUBILEINY 19 Oct 11:13:14 11:21:55 77° 281° (W) 11:30:43 435.215
RS-15 19 Oct 11:15:55 11:27:45 69° 241° (WSW) 11:38:55 29.354- 29.394
EO-79 19 Oct 11:18:16 11:20:53 16° 60° (ENE) 11:23:30 145.935-145.965
ZACube-1 19 Oct 11:20:33 11:23:48 20° 298° (WNW) 11:27:00 437.345
POLYITAN 1 19 Oct 11:22:24 11:25:13 17° 61° (ENE) 11:28:05 437.675
ISS 19 Oct 11:23:30 11:25:58 20° 140° (SE) 11:28:26 437.550
PRISM 19 Oct 11:32:54 11:36:47 44° 261° (W) 11:40:42 437.425
AIST 2D 19 Oct 11:37:00 11:40:23 47° 73° (ENE) 11:43:46 435.315
QB50P2 19 Oct 11:41:36 11:45:14 28° 65° (ENE) 11:48:53 145.880/145.840
UNISAT 6 19 Oct 11:42:20 11:45:56 22° 268° (W) 11:49:36 437.425
SO-50 19 Oct 11:44:59 11:46:37 12° 346° (NNW) 11:48:16 436.795
NANOSAT C BR1 19 Oct 11:46:13 11:49:43 25° 65° (ENE) 11:53:14 145.865
NO-84 19 Oct 11:52:48 11:56:13 31° 225° (SW) 11:59:22 435.350 FM
EO-88 19 Oct 11:55:05 11:58:43 77° 285° (WNW) 12:02:20 145.990 - 145.960
DUCHIFAT 1 19 Oct 11:57:26 12:01:05 29° 66° (ENE) 12:04:46 145.980
TIGRISAT 19 Oct 11:58:07 12:01:13 17° 271° (W) 12:04:22 435.000
Oscar 11 19 Oct 12:00:16 12:02:28 14° 301° (WNW) 12:04:40 .
Max Valier Satellite 19 Oct 12:02:17 12:05:50 46° 289° (WNW) 12:09:21 145.860
BUGSAT 1 19 Oct 12:11:48 12:13:43 13° 58° (ENE) 12:15:40 437.445
ESTCUBE 1 19 Oct 12:13:40 12:16:55 19° 91° (E) 12:20:09 437.505/2401.250
DELFI C3 19 Oct 12:28:18 12:31:21 22° 295° (WNW) 12:34:23 145.870
nSIGHT-1 19 Oct 12:28:57 12:32:09 68° 152° (SSE) 12:35:19 .
LO-87 19 Oct 12:48:18 12:51:55 60° 101° (E) 12:55:30 145.935 - 145.965
PCSat 19 Oct 12:48:27 12:51:27 15° 337° (NNW) 12:54:28 145.827
EO-79 19 Oct 12:51:55 12:56:09 66° 258° (WSW) 13:00:26 145.935-145.965
POLYITAN 1 19 Oct 12:56:21 13:00:34 59° 259° (W) 13:04:51 437.675
ISS 19 Oct 12:58:52 13:02:07 87° 342° (NNW) 13:05:24 437.550
SPROUT 19 Oct 13:08:23 13:11:23 18° 91° (E) 13:14:22 437.525
Oscar 19 19 Oct 13:09:10 13:13:31 29° 62° (ENE) 13:17:54 437.125/150
AIST 2D 19 Oct 13:12:03 13:13:50 13° 270° (W) 13:15:37 435.315
M-CUBED/EXP-1 PRIME 19 Oct 13:13:35 13:16:26 26° 62° (ENE) 13:19:15 437.505
YUBILEINY 19 Oct 13:14:23 13:20:26 20° 306° (NW) 13:26:33 435.215
QB50P2 19 Oct 13:17:02 13:20:55 33° 264° (W) 13:24:51 145.880/145.840
BEESAT 3 19 Oct 13:17:13 13:20:52 34° 119° (ESE) 13:24:33 437.485
NANOSAT C BR1 19 Oct 13:21:19 13:25:16 37° 263° (W) 13:29:15 145.865
AO-7 19 Oct 13:21:43 13:26:25 17° 37° (NE) 13:31:07 .
SO-50 19 Oct 13:27:42 13:29:09 11° 12° (NNE) 13:30:35 436.795
RS-15 19 Oct 13:30:43 13:37:40 18° 265° (W) 13:44:28 29.354- 29.394
Gurwin Techsat 1B 19 Oct 13:31:31 13:36:10 32° 63° (ENE) 13:40:51 435.225
DUCHIFAT 1 19 Oct 13:32:52 13:36:40 32° 264° (W) 13:40:32 145.980
VELOX 1 19 Oct 13:44:10 13:48:01 28° 95° (E) 13:51:52 145.980
AO-85 19 Oct 13:44:10 13:46:16 14° 111° (ESE) 13:48:23 145.980
BUGSAT 1 19 Oct 13:44:15 13:48:27 84° 257° (WSW) 13:52:43 437.445
ESTCUBE 1 19 Oct 13:49:40 13:54:01 51° 289° (WNW) 13:58:21 437.505/2401.250
nSIGHT-1 19 Oct 14:05:26 14:08:33 45° 353° (N) 14:11:39 .
LO-87 19 Oct 14:23:10 14:24:51 13° 299° (WNW) 14:26:33 145.935 - 145.965
BEESAT 2 19 Oct 14:34:54 14:38:53 65° 124° (SE) 14:42:56 435.950
ISS 19 Oct 14:35:40 14:38:50 43° 358° (N) 14:41:59 437.550
PCSat 19 Oct 14:36:41 14:37:23 10° 4° (N) 14:38:05 145.827
SPROUT 19 Oct 14:43:23 14:47:34 51° 289° (WNW) 14:51:43 437.525
Oscar 19 19 Oct 14:47:41 14:52:39 46° 261° (W) 14:57:36 437.125/150
M-CUBED/EXP-1 PRIME 19 Oct 14:48:15 14:50:55 21° 259° (WSW) 14:53:31 437.505
DX 1 19 Oct 14:53:38 14:57:44 37° 98° (E) 15:01:47 434.975-435.025
BEESAT 3 19 Oct 14:54:45 14:58:25 33° 318° (NW) 15:02:07 437.485
SO-50 19 Oct 15:07:15 15:11:09 26° 36° (NE) 15:15:04 436.795
AO-7 19 Oct 15:09:27 15:17:24 53° 60° (ENE) 15:25:21 .
Gurwin Techsat 1B 19 Oct 15:10:59 15:16:00 42° 262° (W) 15:21:03 435.225
ITAMSAT 1 19 Oct 15:18:32 15:23:01 30° 63° (ENE) 15:27:31 435.822/435.867
50 SAT 19 Oct 15:18:59 15:22:19 84° 285° (WNW) 15:25:37 437.505
UKube-1 19 Oct 15:19:48 15:23:57 44° 99° (E) 15:28:06 .
VELOX 1 19 Oct 15:20:29 15:24:30 34° 293° (WNW) 15:28:30 145.980
AO-85 19 Oct 15:22:12 15:26:05 68° 311° (NW) 15:30:08 145.980
nSIGHT-1 19 Oct 15:42:00 15:45:09 53° 13° (NNE) 15:48:18 .
MOZHAYETS 4 19 Oct 15:44:03 15:46:32 14° 88° (E) 15:49:00
ITUPSAT 1 19 Oct 16:03:19 16:06:46 19° 91° (E) 16:10:10 437.325
ISS 19 Oct 16:12:19 16:15:36 67° 18° (NNE) 16:18:51 437.550
BEESAT 2 19 Oct 16:13:48 16:17:00 22° 325° (NW) 16:20:14 435.950
BEESAT 19 Oct 16:19:04 16:23:08 27° 94° (E) 16:27:11 436.000
PCSat 19 Oct 16:19:14 16:23:06 19° 30° (NNE) 16:26:56 145.827
DX 1 19 Oct 16:30:06 16:33:46 26° 296° (WNW) 16:37:24 434.975-435.025
DOVE 4 19 Oct 16:31:04 16:33:31 15° 58° (ENE) 16:36:03 437.250
BEESAT 3 19 Oct 16:36:23 16:37:09 10° 340° (NNW) 16:37:55 437.485
SO-50 19 Oct 16:47:24 16:51:58 64° 236° (SW) 16:56:34 436.795
UKube-1 19 Oct 16:56:21 16:59:43 22° 297° (WNW) 17:03:05 .
ITAMSAT 1 19 Oct 16:57:22 17:02:20 44° 262° (W) 17:07:19 435.822/435.867
AO-7 19 Oct 17:02:34 17:10:20 43° 261° (W) 17:18:10 .
AO-85 19 Oct 17:04:53 17:07:17 15° 333° (NNW) 17:09:46 145.980
nSIGHT-1 19 Oct 17:18:21 17:21:25 43° 212° (SSW) 17:24:29 .
MOZHAYETS 4 19 Oct 17:19:38 17:24:13 73° 287° (WNW) 17:28:46
CUTE-I 19 Oct 17:22:16 17:25:35 17° 55° (NE) 17:28:53 437.470
CUBESAT XI-V 19 Oct 17:28:27 17:32:40 35° 96° (E) 17:36:52 437.345
XW-2C 19 Oct 17:29:20 17:31:05 13° 61° (ENE) 17:32:50 145.795 - 145.815
ITUPSAT 1 19 Oct 17:40:13 17:44:57 58° 290° (WNW) 17:49:39 437.325
ISS 19 Oct 17:49:00 17:51:55 29° 216° (SW) 17:54:49 437.550
HO-68 19 Oct 17:55:52 18:01:06 23° 50° (NE) 18:06:22 435.675
BEESAT 19 Oct 17:56:32 18:01:02 41° 293° (WNW) 18:05:30 436.000
PCSat 19 Oct 18:02:05 18:07:31 68° 53° (NE) 18:12:54 145.827
DOVE 4 19 Oct 18:06:29 18:10:39 68° 258° (WSW) 18:15:02 437.250
XW-2F 19 Oct 18:13:06 18:16:30 32° 69° (ENE) 18:19:54 145.980 - 146.000
KAITUO 1B 19 Oct 18:13:09 18:16:17 26° 67° (ENE) 18:19:25 145.475/437.950
LilacSat-2 19 Oct 18:16:12 18:19:47 40° 71° (ENE) 18:23:23 437.200
XW-2D 19 Oct 18:24:29 18:28:08 47° 72° (ENE) 18:31:48 145.860 - 145.880
NUDT-PHONESAT 19 Oct 18:28:28 18:31:53 36° 70° (ENE) 18:35:19 437.300
XW-2B 19 Oct 18:37:47 18:41:33 65° 73° (ENE) 18:45:19 145.730 - 145.750
CUBEBUG 2 19 Oct 18:48:30 18:51:30 17° 59° (ENE) 18:54:31 437.445
KKS-1 19 Oct 18:52:56 18:57:27 71° 103° (ESE) 19:01:55 437.445
MOZHAYETS 4 19 Oct 18:59:15 19:00:33 11° 305° (NW) 19:01:49
CUTE-I 19 Oct 18:59:35 19:04:55 89° 254° (WSW) 19:10:18 437.470
XW-2C 19 Oct 19:00:59 19:04:47 67° 259° (W) 19:08:33 145.795 - 145.815
CUBESAT XI-V 19 Oct 19:05:58 19:09:57 30° 295° (WNW) 19:13:56 437.345
YUBILEINY 19 Oct 19:23:14 19:28:44 18° 51° (NE) 19:34:14 435.215
UWE-3 19 Oct 19:27:34 19:31:12 23° 63° (ENE) 19:34:51 435.000/436.395/437.385
STARS 19 Oct 19:28:06 19:32:33 69° 102° (ESE) 19:36:58 437.465
CUTE 1.7 + AOD 2 19 Oct 19:31:17 19:35:26 57° 73° (ENE) 19:39:35 437.475
STRAND 1 19 Oct 19:38:26 19:39:37 11° 85° (E) 19:40:49 437.568
SEEDS 19 Oct 19:40:11 19:44:09 44° 71° (ENE) 19:48:09 437.485
HO-68 19 Oct 19:40:44 19:47:55 86° 70° (ENE) 19:55:10 435.675
PCSat 19 Oct 19:46:19 19:50:25 22° 252° (WSW) 19:54:30 145.827
KAITUO 1B 19 Oct 19:47:00 19:50:13 27° 265° (W) 19:53:26 145.475/437.950
Oscar 11 19 Oct 19:47:24 19:49:14 13° 57° (ENE) 19:51:04 .
XW-2F 19 Oct 19:47:42 19:50:41 22° 266° (W) 19:53:40 145.980 - 146.000
LilacSat-2 19 Oct 19:51:32 19:54:14 18° 268° (W) 19:56:57 437.200
BEESAT 3 19 Oct 19:53:30 19:55:55 15° 29° (NNE) 19:58:17 437.485
XW-2D 19 Oct 20:00:16 20:02:35 15° 269° (W) 20:04:54 145.860 - 145.880
NUDT-PHONESAT 19 Oct 20:03:09 20:05:52 19° 267° (W) 20:08:36 437.300
AAUSAT CUBESAT 2 19 Oct 20:06:40 20:10:29 39° 70° (ENE) 20:14:19 437.432
XW-2A 19 Oct 20:14:21 20:17:44 62° 73° (ENE) 20:21:07 145.665 - 145.685
XW-2B 19 Oct 20:14:47 20:16:09 12° 272° (W) 20:17:30 145.730 - 145.750
AO-73 19 Oct 20:20:53 20:25:01 35° 68° (ENE) 20:29:10 145.935
CUBEBUG 2 19 Oct 20:22:51 20:27:31 74° 257° (WSW) 20:32:19 437.445
AO-85 19 Oct 20:29:40 20:31:54 14° 24° (NNE) 20:34:10 145.980
KKS-1 19 Oct 20:30:42 20:33:29 16° 301° (WNW) 20:36:16 437.445
ZACube-1 19 Oct 20:42:00 20:46:31 61° 73° (ENE) 20:51:03 437.345
CUTE-I 19 Oct 20:43:04 20:45:44 14° 273° (W) 20:48:25 437.470
UWE-3 19 Oct 21:02:48 21:07:19 50° 261° (W) 21:11:54 435.000/436.395/437.385
O/OREOS (USA 219) 19 Oct 21:04:35 21:07:59 21° 102° (ESE) 21:11:24 437.305
STARS 19 Oct 21:05:36 21:08:23 17° 301° (WNW) 21:11:10 437.465
CUTE 1.7 + AOD 2 19 Oct 21:09:02 21:11:37 16° 270° (W) 21:14:13 437.475
BEESAT 2 19 Oct 21:11:56 21:15:11 22° 35° (NE) 21:18:23 435.950
Max Valier Satellite 19 Oct 21:12:24 21:14:10 13° 61° (ENE) 21:15:56 145.860
STRAND 1 19 Oct 21:14:30 21:19:42 75° 104° (ESE) 21:24:51 437.568
SEEDS 19 Oct 21:17:01 21:20:03 19° 268° (W) 21:23:07 437.485
YUBILEINY 19 Oct 21:18:47 21:27:34 67° 76° (ENE) 21:36:20 435.215
Oscar 11 19 Oct 21:20:22 21:24:42 89° 256° (WSW) 21:29:05 .
BEESAT 3 19 Oct 21:30:13 21:34:13 68° 51° (NE) 21:38:07 437.485
HO-68 19 Oct 21:31:22 21:36:32 21° 271° (W) 21:41:44 435.675
FO-29 19 Oct 21:40:59 21:47:04 33° 94° (E) 21:53:40 435.910
DELFI C3 19 Oct 21:41:33 21:45:07 35° 69° (ENE) 21:48:42 145.870
AAUSAT CUBESAT 2 19 Oct 21:42:53 21:46:04 21° 267° (W) 21:49:17 437.432
AO-73 19 Oct 21:57:15 22:01:16 30° 266° (W) 22:05:17 145.935
AO-85 19 Oct 22:09:03 22:13:19 45° 45° (NE) 22:17:54 145.980
TIGRISAT 19 Oct 22:10:18 22:11:09 10° 85° (E) 22:11:59 435.000
ZACube-1 19 Oct 22:20:09 22:23:10 17° 270° (W) 22:26:13 437.345
EO-88 19 Oct 22:35:32 22:39:11 76° 75° (ENE) 22:42:51 145.990 - 145.960
O/OREOS (USA 219) 19 Oct 22:42:34 22:47:01 52° 301° (WNW) 22:51:32 437.305
Max Valier Satellite 19 Oct 22:43:48 22:47:30 63° 258° (WSW) 22:51:14 145.860
BEESAT 2 19 Oct 22:49:15 22:53:17 64° 236° (SW) 22:57:14 435.950
STRAND 1 19 Oct 22:54:46 22:58:19 19° 302° (WNW) 23:01:51 437.568
Oscar 11 19 Oct 23:00:57 23:01:30 10° 274° (W) 23:02:03 .
BEESAT 3 19 Oct 23:08:59 23:11:14 15° 249° (WSW) 23:13:28 437.485
PRISM 19 Oct 23:10:52 23:13:47 18° 92° (E) 23:16:42 437.425
ESTCUBE 1 19 Oct 23:16:21 23:20:09 28° 65° (ENE) 23:23:58 437.505/2401.250
YUBILEINY 19 Oct 23:16:21 23:23:46 32° 278° (W) 23:31:12 435.215
DELFI C3 19 Oct 23:16:53 23:19:57 22° 267° (W) 23:23:03 145.870
FO-29 19 Oct 23:25:48 23:32:20 58° 291° (WNW) 23:39:37 435.910
LO-87 19 Oct 23:27:19 23:30:43 41° 71° (ENE) 23:34:09 145.935 - 145.965
UNISAT 6 19 Oct 23:28:56 23:33:35 66° 101° (ESE) 23:38:06 437.425
RS-15 19 Oct 23:38:09 23:43:48 15° 92° (E) 23:49:25 29.354- 29.394
TIGRISAT 19 Oct 23:43:55 23:48:36 84° 104° (ESE) 23:53:09 435.000
AO-85 19 Oct 23:49:39 23:53:37 30° 242° (WSW) 23:57:51 145.980
SPROUT 20 Oct 00:04:53 00:08:13 23° 63° (ENE) 00:11:36 437.525
O/OREOS (USA 219) 20 Oct 00:26:36 00:27:35 11° 323° (NW) 00:28:33 437.305
AIST 2D 20 Oct 00:31:18 00:34:30 34° 97° (E) 00:37:41 435.315
EO-79 20 Oct 00:33:54 00:36:34 16° 90° (E) 00:39:11 145.935-145.965
POLYITAN 1 20 Oct 00:38:17 00:41:11 17° 91° (E) 00:44:03 437.675
VELOX 1 20 Oct 00:44:31 00:48:35 39° 68° (ENE) 00:52:41 145.980
PRISM 20 Oct 00:45:20 00:49:18 46° 290° (WNW) 00:53:15 437.425
ESTCUBE 1 20 Oct 00:52:40 00:56:50 36° 263° (W) 01:00:59 437.505/2401.250
QB50P2 20 Oct 00:57:53 01:01:40 30° 95° (E) 01:05:24 145.880/145.840
NANOSAT C BR1 20 Oct 01:01:47 01:05:25 26° 95° (E) 01:09:01 145.865
LO-87 20 Oct 01:02:01 01:04:20 16° 269° (W) 01:06:40 145.935 - 145.965
UNISAT 6 20 Oct 01:06:40 01:09:47 18° 300° (WNW) 01:12:51 437.425
DUCHIFAT 1 20 Oct 01:12:45 01:16:31 30° 95° (E) 01:20:15 145.980
FO-29 20 Oct 01:12:56 01:16:15 14° 310° (NW) 01:19:45 435.910
TIGRISAT 20 Oct 01:22:04 01:24:37 15° 303° (WNW) 01:27:07 435.000
BUGSAT 1 20 Oct 01:24:26 01:25:50 11° 87° (E) 01:27:13 437.445
SPROUT 20 Oct 01:39:48 01:43:52 43° 262° (W) 01:48:00 437.525
RS-15 20 Oct 01:41:33 01:53:26 59° 115° (ESE) 02:05:17 29.354- 29.394
50 SAT 20 Oct 01:50:36 01:53:47 52° 73° (ENE) 01:57:00 437.505
DX 1 20 Oct 01:52:16 01:56:27 51° 70° (ENE) 02:00:40 434.975-435.025
AIST 2D 20 Oct 02:05:01 02:07:27 18° 295° (WNW) 02:09:55 435.315
EO-79 20 Oct 02:08:28 02:12:41 58° 288° (WNW) 02:16:51 145.935-145.965
POLYITAN 1 20 Oct 02:13:06 02:17:17 52° 289° (WNW) 02:21:25 437.675
UKube-1 20 Oct 02:17:17 02:21:30 60° 72° (ENE) 02:25:46 .
VELOX 1 20 Oct 02:21:35 02:25:10 24° 266° (W) 02:28:47 145.980
M-CUBED/EXP-1 PRIME 20 Oct 02:23:18 02:24:07 11° 97° (E) 02:24:56 437.505
QB50P2 20 Oct 02:33:39 02:37:26 31° 293° (WNW) 02:41:10 145.880/145.840
NANOSAT C BR1 20 Oct 02:37:19 02:41:10 34° 293° (WNW) 02:45:00 145.865
DUCHIFAT 1 20 Oct 02:48:26 02:52:09 30° 294° (WNW) 02:55:49 145.980
MOZHAYETS 4 20 Oct 02:48:52 02:52:26 22° 62° (ENE) 02:56:00
Oscar 19 20 Oct 02:55:14 03:00:11 47° 99° (E) 03:05:06 437.125/150
BUGSAT 1 20 Oct 02:57:30 03:01:46 81° 286° (WNW) 03:05:58 437.445
AO-7 20 Oct 03:11:26 03:12:27 10° 81° (E) 03:13:28 .
ITUPSAT 1 20 Oct 03:13:02 03:17:22 34° 65° (ENE) 03:21:42 437.325
Gurwin Techsat 1B 20 Oct 03:22:58 03:28:14 58° 101° (E) 03:33:28 435.225
50 SAT 20 Oct 03:25:48 03:26:26 10° 270° (W) 03:27:04 437.505
BEESAT 20 Oct 03:28:32 03:33:07 47° 69° (ENE) 03:37:43 436.000
DX 1 20 Oct 03:29:54 03:32:56 18° 268° (W) 03:35:59 434.975-435.025
RS-15 20 Oct 03:53:59 04:06:10 59° 321° (NW) 04:18:12 29.354- 29.394
UKube-1 20 Oct 03:55:18 03:57:55 16° 270° (W) 04:00:33 .
M-CUBED/EXP-1 PRIME 20 Oct 03:55:24 03:58:52 67° 292° (WNW) 04:02:34 437.505
KKS-1 20 Oct 04:20:16 04:22:38 14° 57° (ENE) 04:25:00 437.445
MOZHAYETS 4 20 Oct 04:24:46 04:29:16 50° 260° (W) 04:33:48
